Location: Amber Place
(27.9751°N, 82.3711°W)
Time: 19:29:32
(UTC+00:00)

N. Korean satellite - Pass Details

Date: 28 September 2021
Orbit: 450 x 495 km, 97.3° (Epoch: 25 October)

Event Time Altitude Azimuth Distance (km) Brightness Sun altitude
Rises 10:02:11 0° 27° (NNE) 2,545 10.7 -18.2°
Reaches altitude 10° 10:04:30 10° 41° (NE) 1,669 9.9 -17.7°
Maximum altitude 10:07:30 25° 97° (E) 1,020 9.0 -17.0°
Drops below altitude 10° 10:10:32 10° 154° (SSE) 1,677 9.5 -16.4°
Sets 10:12:51 0° 168° (SSE) 2,559 10.3 -15.9°
